Weather History for Mount Sterling, KY

Change the Weather History Date:

Friday, April 19, 2013

  Actual Average Record
Temperature  
Mean Temperature 57 °F -  
Max Temperature 73 °F 71 °F 73 °F (2013)
Min Temperature 39 °F 45 °F 39 °F (2013)
Degree Days  
Heating Degree Days 8    
Growing Degree Days 7 (Base 50)    
Moisture  
Dew Point 42 °F    
Average Humidity 73    
Maximum Humidity 100    
Minimum Humidity 50    
Precipitation  
Precipitation 0.74 in - - ()
Sea Level Pressure  
Sea Level Pressure 29.81 in    
Wind  
Wind Speed 16 mph (West)    
Max Wind Speed 23 mph    
Max Gust Speed 32 mph    
Visibility 9 miles    
Events Rain    
Averages and records for this station are not official NWS values.
T = Trace of Precipitation, MM = Missing Value Source: NWS Daily Summary

Daily Weather History Graph

Daily Weather History Graph

Search for Another Location

Airport:

Trip Planner

Search our weather history database for the weather conditions in past years. The results will help you decide how hot, cold, wet, or windy it might be!

Date:

Astronomy

Apr. 19, 2013 Rise Set
Actual Time 6:54 AM EDT 8:15 PM EDT
Civil Twilight 6:27 AM EDT 8:43 PM EDT
Nautical Twilight 5:54 AM EDT 9:16 PM EDT
Astronomical Twilight 5:19 AM EDT 9:51 PM EDT
Moon 2:05 PM EDT (4/19) 3:03 AM EDT (4/19)
Length of Visible Light 14h 16m
Length of Day
13h 21m
First Quarter, 61% of the Moon is Illuminated
Apr 19
First Quarter
Apr 25
Full
May 2
Last Quarter
May 9
New
May 18
First Quarter

Hourly Weather History & Observations

Time (EDT) Temp. Windchill Dew Point Humidity Pressure Visibility Wind Dir Wind Speed Gust Speed Precip Events Conditions
12:15 AM 73.4 °F - 53.6 °F 50% 29.71 in 10.0 mi SSW 18.4 mph 26.5 mph N/A   Clear
12:35 AM 73.4 °F - 53.6 °F 50% 29.71 in 10.0 mi SSW 16.1 mph 26.5 mph N/A   Clear
12:55 AM 71.6 °F - 53.6 °F 53% 29.71 in 10.0 mi SSW 15.0 mph 26.5 mph N/A   Clear
1:15 AM 73.4 °F - 53.6 °F 50% 29.69 in 10.0 mi SSW 13.8 mph 26.5 mph N/A   Clear
1:35 AM 71.6 °F - 53.6 °F 53% 29.68 in 10.0 mi SSW 20.7 mph 26.5 mph N/A   Clear
1:55 AM 71.6 °F - 53.6 °F 53% 29.67 in 10.0 mi SSW 15.0 mph 27.6 mph N/A   Clear
2:15 AM 71.6 °F - 53.6 °F 53% 29.64 in 10.0 mi SSW 18.4 mph 25.3 mph N/A   Clear
2:35 AM 71.6 °F - 53.6 °F 53% 29.64 in 10.0 mi SSW 17.3 mph 27.6 mph N/A   Clear
2:55 AM 71.6 °F - 53.6 °F 53% 29.63 in 10.0 mi SSW 16.1 mph 29.9 mph N/A   Clear
3:15 AM 71.6 °F - 53.6 °F 53% 29.63 in 10.0 mi SW 19.6 mph 32.2 mph N/A   Scattered Clouds
3:35 AM 71.6 °F - 53.6 °F 53% 29.62 in 10.0 mi SSW 18.4 mph 29.9 mph N/A   Scattered Clouds
3:55 AM 69.8 °F - 55.4 °F 60% 29.61 in 10.0 mi SSW 18.4 mph 28.8 mph N/A Rain Light Rain
4:15 AM 69.8 °F - 55.4 °F 60% 29.59 in 10.0 mi SSW 16.1 mph 32.2 mph N/A Rain Light Rain
4:35 AM 69.8 °F - 57.2 °F 64% 29.58 in 10.0 mi SW 17.3 mph 28.8 mph N/A Rain Light Rain
4:55 AM 68.0 °F - 59.0 °F 73% 29.59 in 10.0 mi SW 16.1 mph 25.3 mph N/A Rain Rain
5:15 AM 66.2 °F - 59.0 °F 78% 29.57 in 10.0 mi SSW 19.6 mph 26.5 mph N/A Rain Light Rain
5:35 AM 64.4 °F - 60.8 °F 88% 29.57 in 10.0 mi SSW 23.0 mph 28.8 mph 0.01 in Rain Light Rain
5:55 AM 62.6 °F - 60.8 °F 94% 29.57 in 3.0 mi SSW 23.0 mph 28.8 mph 0.11 in Rain Heavy Rain
6:15 AM 62.6 °F - 60.8 °F 94% 29.56 in 7.0 mi SSW 16.1 mph 25.3 mph 0.03 in Rain Rain
6:55 AM 51.8 °F - 51.8 °F 100% 29.63 in 10.0 mi WNW 19.6 mph 28.8 mph 0.22 in Rain Light Rain
7:15 AM 50.0 °F - 50.0 °F 100% 29.65 in 5.0 mi WNW 16.1 mph 27.6 mph 0.08 in Rain Rain
7:35 AM 50.0 °F - 48.2 °F 94% 29.66 in 7.0 mi NW 12.7 mph 21.9 mph 0.13 in Rain Rain
7:55 AM 46.4 °F 40.1 °F 46.4 °F 100% 29.71 in 4.0 mi WNW 15.0 mph 23.0 mph 0.24 in Rain Rain
8:15 AM 46.4 °F 41.5 °F 44.6 °F 93% 29.71 in 2.5 mi WNW 10.4 mph 21.9 mph 0.09 in Rain Rain
8:35 AM 44.6 °F 38.8 °F 42.8 °F 93% 29.71 in 7.0 mi WNW 11.5 mph 24.2 mph 0.12 in Rain Rain
8:55 AM 44.6 °F 39.2 °F 44.6 °F 100% 29.74 in 7.0 mi West 10.4 mph 19.6 mph 0.17 in Rain Rain
9:15 AM 44.6 °F 38.1 °F 42.8 °F 93% 29.75 in 10.0 mi WNW 13.8 mph 19.6 mph N/A   Overcast
9:35 AM 44.6 °F 38.4 °F 42.8 °F 93% 29.77 in 10.0 mi WNW 12.7 mph 21.9 mph N/A   Overcast
9:55 AM 44.6 °F 37.2 °F 42.8 °F 93% 29.79 in 5.0 mi West 17.3 mph 23.0 mph N/A Rain Rain
10:15 AM 42.8 °F 34.5 °F 42.8 °F 100% 29.80 in 7.0 mi West 18.4 mph 25.3 mph N/A   Overcast
10:55 AM 41.0 °F 33.1 °F 41.0 °F 100% 29.83 in 10.0 mi WNW 15.0 mph 26.5 mph N/A   Overcast
11:15 AM 41.0 °F 32.2 °F 41.0 °F 100% 29.84 in 10.0 mi West 18.4 mph 27.6 mph N/A   Overcast
11:35 AM 41.0 °F 31.9 °F 39.2 °F 93% 29.83 in 10.0 mi West 19.6 mph 27.6 mph N/A   Overcast
11:55 AM 42.8 °F 34.3 °F 37.4 °F 81% 29.84 in 10.0 mi West 19.6 mph 32.2 mph N/A   Overcast
12:15 PM 42.8 °F 34.3 °F 37.4 °F 81% 29.84 in 10.0 mi WNW 19.6 mph 26.5 mph N/A   Overcast
12:35 PM 44.6 °F 37.8 °F 37.4 °F 76% 29.84 in 10.0 mi West 15.0 mph 25.3 mph N/A   Overcast
12:55 PM 44.6 °F 37.4 °F 37.4 °F 76% 29.85 in 10.0 mi WNW 16.1 mph 25.3 mph N/A   Overcast
1:15 PM 44.6 °F 37.2 °F 35.6 °F 71% 29.85 in 10.0 mi West 17.3 mph 26.5 mph N/A   Overcast
1:35 PM 44.6 °F 37.4 °F 35.6 °F 71% 29.86 in 10.0 mi West 16.1 mph 27.6 mph N/A   Overcast
1:55 PM 42.8 °F 34.5 °F 35.6 °F 76% 29.88 in 10.0 mi West 18.4 mph 26.5 mph N/A   Overcast
2:15 PM 44.6 °F 36.9 °F 35.6 °F 71% 29.87 in 10.0 mi WNW 18.4 mph 31.1 mph N/A   Overcast
2:35 PM 44.6 °F 39.2 °F 35.6 °F 71% 29.88 in 10.0 mi West 10.4 mph 18.4 mph N/A   Overcast
2:55 PM 44.6 °F 36.6 °F 35.6 °F 71% 29.87 in 10.0 mi WNW 19.6 mph 26.5 mph N/A   Overcast
3:15 PM 44.6 °F 38.1 °F 35.6 °F 71% 29.88 in 10.0 mi WNW 13.8 mph 20.7 mph N/A   Overcast
3:35 PM 44.6 °F 38.4 °F 35.6 °F 71% 29.88 in 10.0 mi WNW 12.7 mph 23.0 mph N/A   Overcast
3:55 PM 44.6 °F 37.2 °F 35.6 °F 71% 29.89 in 10.0 mi WNW 17.3 mph 21.9 mph N/A   Overcast
4:15 PM 46.4 °F 39.8 °F 33.8 °F 62% 29.88 in 10.0 mi West 16.1 mph 25.3 mph N/A   Overcast
4:35 PM 46.4 °F 38.7 °F 32.0 °F 57% 29.88 in 10.0 mi West 20.7 mph 24.2 mph N/A   Overcast
4:55 PM 46.4 °F 41.5 °F 33.8 °F 62% 29.89 in 10.0 mi West 10.4 mph 26.5 mph N/A   Overcast
5:15 PM 46.4 °F 40.1 °F 33.8 °F 62% 29.89 in 10.0 mi West 15.0 mph 23.0 mph N/A   Overcast
5:35 PM 44.6 °F 38.1 °F 33.8 °F 66% 29.90 in 10.0 mi West 13.8 mph 23.0 mph N/A   Overcast
5:55 PM 44.6 °F 38.1 °F 32.0 °F 61% 29.91 in 10.0 mi West 13.8 mph 25.3 mph N/A   Overcast
6:15 PM 44.6 °F 37.4 °F 32.0 °F 61% 29.92 in 10.0 mi West 16.1 mph 26.5 mph N/A   Overcast
6:35 PM 44.6 °F 37.8 °F 32.0 °F 61% 29.93 in 10.0 mi WNW 15.0 mph 25.3 mph N/A   Overcast
6:55 PM 44.6 °F 38.4 °F 33.8 °F 66% 29.95 in 10.0 mi WNW 12.7 mph 21.9 mph N/A   Overcast
7:15 PM 44.6 °F 39.2 °F 33.8 °F 66% 29.95 in 10.0 mi WNW 10.4 mph - N/A   Overcast
7:35 PM 42.8 °F 36.6 °F 33.8 °F 70% 29.95 in 10.0 mi West 11.5 mph 16.1 mph N/A   Overcast
7:55 PM 42.8 °F 37.0 °F 33.8 °F 70% 29.95 in 10.0 mi West 10.4 mph 21.9 mph N/A   Overcast
8:15 PM 42.8 °F 36.6 °F 33.8 °F 70% 29.96 in 10.0 mi WNW 11.5 mph 19.6 mph N/A   Overcast
8:35 PM 42.8 °F 36.2 °F 32.0 °F 66% 29.98 in 10.0 mi WNW 12.7 mph 18.4 mph N/A   Overcast
8:55 PM 42.8 °F 36.2 °F 32.0 °F 66% 29.99 in 10.0 mi WNW 12.7 mph 19.6 mph N/A   Overcast
9:15 PM 42.8 °F 38.6 °F 32.0 °F 66% 30.00 in 10.0 mi West 6.9 mph 11.5 mph N/A   Overcast
9:35 PM 42.8 °F 38.0 °F 32.0 °F 66% 30.01 in 10.0 mi WNW 8.1 mph - N/A   Overcast
9:55 PM 42.8 °F 38.0 °F 33.8 °F 70% 30.02 in 10.0 mi WNW 8.1 mph - N/A   Overcast
10:15 PM 42.8 °F 37.5 °F 33.8 °F 70% 30.03 in 10.0 mi WNW 9.2 mph - N/A   Overcast
10:35 PM 42.8 °F 37.5 °F 32.0 °F 66% 30.04 in 10.0 mi NW 9.2 mph 16.1 mph N/A   Overcast
10:55 PM 42.8 °F 40.1 °F 32.0 °F 66% 30.05 in 10.0 mi WNW 4.6 mph 16.1 mph N/A Rain Light Rain
11:15 PM 41.0 °F 37.1 °F 32.0 °F 70% 30.05 in 10.0 mi West 5.8 mph - N/A   Overcast
11:35 PM 41.0 °F 37.1 °F 32.0 °F 70% 30.06 in 10.0 mi WNW 5.8 mph - N/A   Mostly Cloudy
11:55 PM 39.2 °F 34.2 °F 32.0 °F 75% 30.07 in 10.0 mi West 6.9 mph - N/A   Scattered Clouds